CES2527 ZBLA-UIII

Flight info

Callsign CES2527
Flight time 1h 41m
Altitude 38000
Route KAG09D KAGAK A345 TELOK A810 RINOP A45 USONA USONA4B
Aircraft A20N/M-SDE2E3FGHIRWXY/LB1

Departure

Time 2026-04-26 07:02
Airport Hulunbuir Hailar Airport (ZBLA)

Arrival

Time 2026-04-26 08:43
Airport Irkutsk International Airport (UIII)
Time Latitude Longitude Altitude Speed Heading
2026-04-26 06:42 49.21007 119.81810 2154 ft 0 kts 354°
2026-04-26 06:51 49.20995 119.81812 2153 ft 2 kts 354°
2026-04-26 06:52 49.20978 119.81815 2154 ft 2 kts 354°
2026-04-26 06:52 49.20962 119.81818 2153 ft 2 kts 353°
2026-04-26 06:52 49.20946 119.81821 2155 ft 2 kts 352°
2026-04-26 06:52 49.20930 119.81825 2154 ft 2 kts 335°
2026-04-26 06:53 49.20918 119.81841 2152 ft 2 kts 290°
2026-04-26 06:53 49.20914 119.81865 2151 ft 2 kts 274°
2026-04-26 06:53 49.20914 119.81888 2151 ft 1 kts 265°
2026-04-26 06:53 49.20914 119.81892 2151 ft 0 kts 264°
2026-04-26 06:55 49.20914 119.81888 2151 ft 1 kts 264°
2026-04-26 06:55 49.20914 119.81887 2151 ft 0 kts 264°
2026-04-26 06:57 49.20913 119.81880 2151 ft 2 kts 264°
2026-04-26 06:57 49.20911 119.81845 2150 ft 5 kts 264°
2026-04-26 06:57 49.20907 119.81786 2155 ft 6 kts 264°
2026-04-26 06:58 49.20899 119.81709 2156 ft 8 kts 251°
2026-04-26 06:58 49.20851 119.81674 2153 ft 9 kts 174°
2026-04-26 06:58 49.20777 119.81684 2154 ft 12 kts 174°
2026-04-26 06:58 49.20688 119.81697 2153 ft 14 kts 175°
2026-04-26 06:59 49.20573 119.81706 2153 ft 18 kts 191°
2026-04-26 06:59 49.20521 119.81554 2156 ft 18 kts 264°
2026-04-26 06:59 49.20505 119.81367 2160 ft 18 kts 261°
2026-04-26 06:59 49.20491 119.81173 2162 ft 19 kts 264°
2026-04-26 07:00 49.20502 119.81002 2157 ft 14 kts 292°
2026-04-26 07:00 49.20492 119.80919 2162 ft 7 kts 190°
2026-04-26 07:00 49.20475 119.80985 2156 ft 9 kts 80°
2026-04-26 07:00 49.20480 119.81034 2158 ft 0 kts 83°
2026-04-26 07:01 49.20482 119.81063 2164 ft 21 kts 83°
2026-04-26 07:01 49.20525 119.81669 2154 ft 92 kts 84°
2026-04-26 07:01 49.20614 119.82953 2153 ft 148 kts 84°
2026-04-26 07:01 49.20720 119.84695 2415 ft 171 kts 82°
2026-04-26 07:02 49.20816 119.86553 3074 ft 178 kts 81°
2026-04-26 07:02 49.20919 119.88462 3744 ft 181 kts 80°
2026-04-26 07:02 49.21062 119.90426 4330 ft 196 kts 81°
2026-04-26 07:02 49.21237 119.92651 4625 ft 227 kts 78°
2026-04-26 07:03 49.21839 119.94865 5399 ft 226 kts 47°
2026-04-26 07:03 49.23031 119.96304 6317 ft 222 kts 20°
2026-04-26 07:03 49.24523 119.96678 7236 ft 219 kts 352°
2026-04-26 07:03 49.25946 119.95886 8075 ft 221 kts 324°
2026-04-26 07:04 49.26928 119.94093 8969 ft 225 kts 295°
2026-04-26 07:04 49.27360 119.91745 9707 ft 237 kts 284°
2026-04-26 07:04 49.27737 119.89163 10122 ft 260 kts 284°
2026-04-26 07:04 49.28150 119.86341 10480 ft 283 kts 284°
2026-04-26 07:05 49.28515 119.83258 10826 ft 307 kts 277°
2026-04-26 07:05 49.28573 119.79862 11176 ft 328 kts 268°
2026-04-26 07:05 49.28314 119.76395 11926 ft 335 kts 265°
2026-04-26 07:05 49.28032 119.72825 12723 ft 341 kts 265°
2026-04-26 07:06 49.27758 119.69205 13582 ft 344 kts 265°
2026-04-26 07:06 49.27485 119.65544 14312 ft 349 kts 265°
2026-04-26 07:06 49.27206 119.61842 15071 ft 352 kts 264°
2026-04-26 07:06 49.26921 119.58108 15805 ft 355 kts 264°
2026-04-26 07:07 49.26633 119.54332 16511 ft 359 kts 264°
2026-04-26 07:07 49.26340 119.50515 17233 ft 362 kts 264°
2026-04-26 07:07 49.26046 119.46711 17887 ft 368 kts 263°
2026-04-26 07:07 49.25744 119.42813 18567 ft 370 kts 263°
2026-04-26 07:08 49.25436 119.38874 19137 ft 375 kts 263°
2026-04-26 07:08 49.25123 119.34901 19793 ft 376 kts 263°
2026-04-26 07:08 49.24806 119.30902 20367 ft 381 kts 263°
2026-04-26 07:08 49.24485 119.26870 20999 ft 383 kts 263°
2026-04-26 07:09 49.24160 119.22801 21561 ft 387 kts 263°
2026-04-26 07:09 49.23830 119.18695 22160 ft 390 kts 263°
2026-04-26 07:09 49.23496 119.14552 22716 ft 394 kts 263°
2026-04-26 07:09 49.23162 119.10438 23356 ft 395 kts 263°
2026-04-26 07:10 49.23165 118.97778 24796 ft 404 kts 274°
2026-04-26 07:11 49.23548 118.89147 25741 ft 408 kts 274°
2026-04-26 07:11 49.23734 118.84794 26178 ft 412 kts 274°
2026-04-26 07:11 49.23920 118.80416 26646 ft 414 kts 274°
2026-04-26 07:11 49.24103 118.76060 26995 ft 418 kts 274°
2026-04-26 07:12 49.24288 118.71596 27340 ft 422 kts 273°
2026-04-26 07:12 49.24473 118.67119 27828 ft 423 kts 273°
2026-04-26 07:12 49.24658 118.62605 28126 ft 428 kts 273°
2026-04-26 07:12 49.24843 118.58035 28465 ft 431 kts 273°
2026-04-26 07:13 49.25027 118.53448 28848 ft 433 kts 273°
2026-04-26 07:13 49.25210 118.48831 29208 ft 436 kts 273°
2026-04-26 07:13 49.25392 118.44188 29570 ft 438 kts 272°
2026-04-26 07:13 49.25570 118.39588 29889 ft 441 kts 272°
2026-04-26 07:14 49.25750 118.34892 30200 ft 443 kts 272°
2026-04-26 07:14 49.25929 118.30176 30540 ft 444 kts 273°
2026-04-26 07:14 49.26106 118.25467 30931 ft 444 kts 273°
2026-04-26 07:14 49.26281 118.20763 31410 ft 441 kts 273°
2026-04-26 07:15 49.26475 118.16074 31769 ft 442 kts 276°
2026-04-26 07:15 49.27096 118.11460 32000 ft 444 kts 288°
2026-04-26 07:15 49.28303 118.07127 32452 ft 442 kts 299°
2026-04-26 07:15 49.30003 118.03220 32887 ft 441 kts 307°
2026-04-26 07:16 49.31828 117.99530 33247 ft 440 kts 306°
2026-04-26 07:16 49.33668 117.95792 33651 ft 438 kts 306°
2026-04-26 07:16 49.35495 117.92067 34062 ft 436 kts 306°
2026-04-26 07:16 49.37313 117.88351 34369 ft 435 kts 306°
2026-04-26 07:17 49.39127 117.84638 34630 ft 435 kts 306°
2026-04-26 07:17 49.40930 117.80915 34880 ft 435 kts 306°
2026-04-26 07:17 49.42735 117.77183 35092 ft 435 kts 306°
2026-04-26 07:17 49.44544 117.73450 35349 ft 435 kts 306°
2026-04-26 07:18 49.46349 117.69730 35598 ft 434 kts 306°
2026-04-26 07:18 49.48132 117.66057 35839 ft 434 kts 306°
2026-04-26 07:18 49.49935 117.62341 36071 ft 434 kts 306°
2026-04-26 07:18 49.51737 117.58623 36298 ft 433 kts 306°
2026-04-26 07:19 49.53536 117.54905 36526 ft 433 kts 306°
2026-04-26 07:19 49.55333 117.51187 36747 ft 433 kts 306°
2026-04-26 07:19 49.57128 117.47467 36958 ft 432 kts 306°
2026-04-26 07:19 49.59001 117.43843 37157 ft 432 kts 311°
2026-04-26 07:20 49.61047 117.40450 37354 ft 432 kts 312°
2026-04-26 07:20 49.63111 117.37175 37541 ft 432 kts 316°
2026-04-26 07:20 49.65402 117.34179 37720 ft 432 kts 322°
2026-04-26 07:20 49.67787 117.31361 37898 ft 432 kts 321°
2026-04-26 07:21 49.70166 117.28513 38019 ft 432 kts 321°
2026-04-26 07:21 49.74899 117.22820 38019 ft 431 kts 321°
2026-04-26 07:22 49.79632 117.17124 38019 ft 432 kts 321°
2026-04-26 07:22 49.84339 117.11452 38021 ft 431 kts 321°
2026-04-26 07:23 49.89078 117.05729 38025 ft 432 kts 321°
2026-04-26 07:23 49.93807 117.00002 38019 ft 431 kts 321°
2026-04-26 07:24 49.98531 116.94267 38020 ft 431 kts 321°
2026-04-26 07:24 50.03217 116.88562 38016 ft 431 kts 321°
2026-04-26 07:25 50.07929 116.82810 38020 ft 430 kts 321°
2026-04-26 07:25 50.12641 116.77044 38017 ft 431 kts 321°
2026-04-26 07:26 50.17351 116.71254 38025 ft 431 kts 321°
2026-04-26 07:26 50.22051 116.65424 38027 ft 432 kts 321°
2026-04-26 07:27 50.26720 116.59621 38033 ft 432 kts 321°
2026-04-26 07:27 50.31423 116.53764 38037 ft 432 kts 321°
2026-04-26 07:28 50.36020 116.47700 38047 ft 433 kts 315°
2026-04-26 07:28 50.39995 116.40634 38051 ft 433 kts 307°
2026-04-26 07:29 50.43294 116.32813 38045 ft 433 kts 303°
2026-04-26 07:29 50.46536 116.24838 38059 ft 434 kts 303°
2026-04-26 07:30 50.49764 116.16837 38063 ft 434 kts 303°
2026-04-26 07:30 50.52983 116.08798 38069 ft 435 kts 303°
2026-04-26 07:31 50.56175 116.00797 38069 ft 435 kts 302°
2026-04-26 07:31 50.59367 115.92701 38079 ft 436 kts 301°
2026-04-26 07:32 50.62423 115.84467 38078 ft 436 kts 301°
2026-04-26 07:32 50.65472 115.76212 38084 ft 436 kts 301°
2026-04-26 07:33 50.68532 115.67956 38085 ft 436 kts 301°
2026-04-26 07:33 50.71568 115.59752 38087 ft 436 kts 301°
2026-04-26 07:34 50.74618 115.51484 38084 ft 436 kts 301°
2026-04-26 07:34 50.77661 115.43211 38083 ft 435 kts 301°
2026-04-26 07:35 50.80695 115.34931 38076 ft 435 kts 301°
2026-04-26 07:35 50.83703 115.26699 38075 ft 435 kts 301°
2026-04-26 07:36 50.86722 115.18406 38077 ft 435 kts 301°
2026-04-26 07:36 50.89733 115.10112 38078 ft 434 kts 301°
2026-04-26 07:37 50.92736 115.01811 38075 ft 434 kts 301°
2026-04-26 07:37 50.95713 114.93556 38073 ft 434 kts 301°
2026-04-26 07:38 50.98706 114.85243 38073 ft 434 kts 301°
2026-04-26 07:38 51.01705 114.76936 38073 ft 433 kts 301°
2026-04-26 07:39 51.04684 114.68610 38076 ft 433 kts 301°
2026-04-26 07:39 51.07650 114.60270 38076 ft 433 kts 301°
2026-04-26 07:40 51.10436 114.51839 38078 ft 434 kts 295°
2026-04-26 07:40 51.12677 114.42901 38079 ft 435 kts 293°
2026-04-26 07:41 51.14913 114.33964 38080 ft 434 kts 293°
2026-04-26 07:41 51.17139 114.25015 38080 ft 435 kts 293°
2026-04-26 07:42 51.19337 114.16114 38082 ft 435 kts 293°
2026-04-26 07:42 51.21544 114.07130 38086 ft 435 kts 293°
2026-04-26 07:43 51.23744 113.98138 38092 ft 435 kts 293°
2026-04-26 07:43 51.25940 113.89130 38099 ft 436 kts 293°
2026-04-26 07:44 51.28129 113.80109 38100 ft 436 kts 292°
2026-04-26 07:44 51.30272 113.71239 38098 ft 418 kts 292°
2026-04-26 07:44 51.31295 113.66986 38095 ft 402 kts 292°
2026-04-26 07:45 51.32285 113.62866 38096 ft 395 kts 292°
2026-04-26 07:45 51.34268 113.54609 38101 ft 400 kts 293°
2026-04-26 07:46 51.36256 113.46294 38101 ft 400 kts 292°
2026-04-26 07:46 51.38223 113.38034 38103 ft 400 kts 292°
2026-04-26 07:47 51.40199 113.29705 38106 ft 400 kts 292°
2026-04-26 07:47 51.42171 113.21358 38111 ft 400 kts 292°
2026-04-26 07:48 51.44136 113.13006 38112 ft 400 kts 292°
2026-04-26 07:48 51.46079 113.04715 38129 ft 400 kts 292°
2026-04-26 07:49 51.48031 112.96361 38132 ft 400 kts 292°
2026-04-26 07:49 51.49977 112.87996 38143 ft 400 kts 292°
2026-04-26 07:50 51.52884 112.75443 38131 ft 400 kts 292°
2026-04-26 07:50 51.54799 112.67127 38148 ft 399 kts 292°
2026-04-26 07:51 51.56719 112.58759 38145 ft 399 kts 292°
2026-04-26 07:51 51.58635 112.50383 38157 ft 399 kts 292°
2026-04-26 07:52 51.60543 112.42002 38159 ft 399 kts 292°
2026-04-26 07:52 51.62445 112.33617 38163 ft 399 kts 292°
2026-04-26 07:53 51.64328 112.25279 38157 ft 399 kts 292°
2026-04-26 07:53 51.66215 112.16894 38170 ft 398 kts 292°
2026-04-26 07:54 51.68098 112.08490 38171 ft 398 kts 292°
2026-04-26 07:54 51.69960 112.00147 38175 ft 398 kts 292°
2026-04-26 07:55 51.71828 111.91747 38172 ft 398 kts 292°
2026-04-26 07:55 51.73688 111.83344 38163 ft 398 kts 292°
2026-04-26 07:56 51.75541 111.74943 38177 ft 397 kts 292°
2026-04-26 07:56 51.77389 111.66535 38177 ft 397 kts 292°
2026-04-26 07:57 51.79222 111.58176 38186 ft 398 kts 292°
2026-04-26 07:57 51.81052 111.49741 38186 ft 398 kts 292°
2026-04-26 07:58 51.82878 111.41306 38189 ft 398 kts 292°
2026-04-26 07:58 51.84686 111.32925 38194 ft 397 kts 292°
2026-04-26 07:59 51.86500 111.24489 38192 ft 397 kts 292°
2026-04-26 07:59 51.88309 111.16037 38196 ft 398 kts 292°
2026-04-26 08:00 51.90114 111.07569 38209 ft 398 kts 292°
2026-04-26 08:00 51.91913 110.99090 38210 ft 398 kts 292°
2026-04-26 08:01 51.93695 110.90657 38214 ft 398 kts 292°
2026-04-26 08:01 51.95485 110.82157 38214 ft 399 kts 292°
2026-04-26 08:02 51.97268 110.73648 38216 ft 399 kts 292°
2026-04-26 08:02 51.99045 110.65134 38215 ft 398 kts 292°
2026-04-26 08:03 52.00804 110.56669 38215 ft 398 kts 291°
2026-04-26 08:03 52.02567 110.48148 38199 ft 398 kts 291°
2026-04-26 08:04 52.04321 110.39635 38216 ft 397 kts 291°
2026-04-26 08:04 52.06069 110.31118 38214 ft 397 kts 291°
2026-04-26 08:05 52.07798 110.22652 38214 ft 397 kts 291°
2026-04-26 08:05 52.09534 110.14122 38217 ft 397 kts 291°
2026-04-26 08:06 52.11263 110.05583 38214 ft 397 kts 291°
2026-04-26 08:06 52.12984 109.97050 38205 ft 397 kts 291°
2026-04-26 08:07 52.14664 109.88683 38213 ft 397 kts 291°
2026-04-26 08:07 52.16119 109.80002 38215 ft 400 kts 284°
2026-04-26 08:08 52.16673 109.70961 38204 ft 404 kts 274°
2026-04-26 08:08 52.16615 109.61793 38208 ft 405 kts 274°
2026-04-26 08:09 52.16571 109.52686 38211 ft 405 kts 274°
2026-04-26 08:09 52.16510 109.43513 38215 ft 405 kts 273°
2026-04-26 08:10 52.16437 109.34332 38213 ft 406 kts 273°
2026-04-26 08:10 52.16356 109.25144 38222 ft 406 kts 273°
2026-04-26 08:11 52.16269 109.16027 38232 ft 405 kts 273°
2026-04-26 08:11 52.16177 109.06848 38235 ft 406 kts 273°
2026-04-26 08:12 52.16076 108.97661 38233 ft 405 kts 273°
2026-04-26 08:12 52.15969 108.88544 38237 ft 406 kts 273°
2026-04-26 08:13 52.15856 108.79354 38247 ft 406 kts 273°
2026-04-26 08:13 52.15733 108.70158 38250 ft 406 kts 273°
2026-04-26 08:14 52.15602 108.60953 38261 ft 407 kts 272°
2026-04-26 08:14 52.15464 108.51746 38264 ft 407 kts 272°
2026-04-26 08:15 52.15321 108.42601 38246 ft 406 kts 272°
2026-04-26 08:15 52.15171 108.33406 38255 ft 406 kts 272°
2026-04-26 08:16 52.15013 108.24210 38254 ft 406 kts 272°
2026-04-26 08:16 52.14849 108.15072 38265 ft 407 kts 272°
2026-04-26 08:17 52.14676 108.05871 38257 ft 407 kts 272°
2026-04-26 08:17 52.14496 107.96663 38264 ft 406 kts 273°
2026-04-26 08:18 52.14309 107.87446 38293 ft 410 kts 272°
2026-04-26 08:18 52.14214 107.82775 38169 ft 418 kts 272°
2026-04-26 08:18 52.14115 107.77989 37887 ft 429 kts 272°
2026-04-26 08:19 52.14014 107.73146 37635 ft 439 kts 272°
2026-04-26 08:19 52.13908 107.68157 37379 ft 441 kts 272°
2026-04-26 08:19 52.13798 107.63184 37119 ft 438 kts 272°
2026-04-26 08:19 52.13688 107.58237 36869 ft 437 kts 272°
2026-04-26 08:20 52.13577 107.53291 36616 ft 437 kts 272°
2026-04-26 08:20 52.13465 107.48338 36371 ft 439 kts 273°
2026-04-26 08:20 52.13348 107.43380 36108 ft 438 kts 272°
2026-04-26 08:20 52.13171 107.38430 35861 ft 438 kts 271°
2026-04-26 08:21 52.12956 107.33483 35632 ft 439 kts 271°
2026-04-26 08:21 52.12810 107.30203 35472 ft 439 kts 271°
2026-04-26 08:21 52.12516 107.23569 35156 ft 439 kts 272°
2026-04-26 08:21 52.12302 107.18614 34922 ft 439 kts 272°
2026-04-26 08:22 52.12160 107.15329 34768 ft 439 kts 271°
2026-04-26 08:22 52.11940 107.10373 34541 ft 439 kts 272°
2026-04-26 08:22 52.11726 107.05403 33981 ft 442 kts 272°
2026-04-26 08:22 52.11512 107.00405 33158 ft 444 kts 272°
2026-04-26 08:23 52.11293 106.95389 32360 ft 444 kts 272°
2026-04-26 08:23 52.11070 106.90386 31621 ft 442 kts 273°
2026-04-26 08:23 52.10844 106.85433 31059 ft 436 kts 273°
2026-04-26 08:23 52.10611 106.80538 30470 ft 432 kts 273°
2026-04-26 08:24 52.10372 106.75692 29829 ft 427 kts 273°
2026-04-26 08:24 52.10134 106.70919 29256 ft 421 kts 273°
2026-04-26 08:24 52.09899 106.66208 28690 ft 415 kts 273°
2026-04-26 08:24 52.09667 106.61569 28122 ft 409 kts 273°
2026-04-26 08:25 52.09437 106.56987 27565 ft 404 kts 273°
2026-04-26 08:25 52.09208 106.52458 27010 ft 399 kts 273°
2026-04-26 08:25 52.08984 106.48046 26453 ft 395 kts 273°
2026-04-26 08:25 52.08758 106.43621 25923 ft 391 kts 273°
2026-04-26 08:26 52.08532 106.39244 25353 ft 387 kts 274°
2026-04-26 08:26 52.08306 106.34907 24841 ft 383 kts 274°
2026-04-26 08:26 52.08082 106.30609 24308 ft 380 kts 274°
2026-04-26 08:26 52.07860 106.26336 23751 ft 378 kts 274°
2026-04-26 08:27 52.07649 106.22096 23194 ft 374 kts 274°
2026-04-26 08:27 52.07442 106.17907 22665 ft 369 kts 274°
2026-04-26 08:27 52.07238 106.13769 22135 ft 365 kts 274°
2026-04-26 08:27 52.07036 106.09728 21619 ft 362 kts 274°
2026-04-26 08:28 52.06831 106.05677 21103 ft 358 kts 273°
2026-04-26 08:28 52.06627 106.01666 20584 ft 355 kts 273°
2026-04-26 08:28 52.06423 105.97682 20058 ft 352 kts 273°
2026-04-26 08:28 52.06219 105.93729 19550 ft 350 kts 273°
2026-04-26 08:29 52.06015 105.89801 19035 ft 348 kts 273°
2026-04-26 08:29 52.05810 105.85899 18499 ft 345 kts 272°
2026-04-26 08:29 52.05607 105.82029 17972 ft 342 kts 272°
2026-04-26 08:29 52.05405 105.78205 17468 ft 338 kts 272°
2026-04-26 08:30 52.05205 105.74469 16977 ft 335 kts 272°
2026-04-26 08:30 52.05004 105.70717 16479 ft 332 kts 272°
2026-04-26 08:30 52.04802 105.66997 15973 ft 329 kts 272°
2026-04-26 08:30 52.04601 105.63306 15484 ft 327 kts 272°
2026-04-26 08:31 52.04400 105.59634 14995 ft 325 kts 271°
2026-04-26 08:31 52.04198 105.55987 14509 ft 324 kts 271°
2026-04-26 08:31 52.03997 105.52357 14017 ft 322 kts 271°
2026-04-26 08:31 52.03795 105.48746 13516 ft 319 kts 271°
2026-04-26 08:32 52.03604 105.45172 13030 ft 315 kts 273°
2026-04-26 08:32 52.03676 105.41717 12571 ft 307 kts 282°
2026-04-26 08:32 52.04104 105.38375 12113 ft 299 kts 291°
2026-04-26 08:32 52.04775 105.35217 11660 ft 294 kts 294°
2026-04-26 08:33 52.05444 105.32105 11237 ft 291 kts 294°
2026-04-26 08:33 52.06101 105.29014 10805 ft 288 kts 293°
2026-04-26 08:33 52.06745 105.25964 10577 ft 279 kts 293°
2026-04-26 08:33 52.07361 105.23038 10416 ft 270 kts 293°
2026-04-26 08:34 52.07957 105.20201 10212 ft 261 kts 293°
2026-04-26 08:34 52.08543 105.17418 10035 ft 263 kts 294°
2026-04-26 08:34 52.09140 105.14600 9897 ft 263 kts 293°
2026-04-26 08:34 52.09725 105.11825 9628 ft 263 kts 293°
2026-04-26 08:35 52.10313 105.09021 9277 ft 261 kts 293°
2026-04-26 08:35 52.10896 105.06242 8924 ft 259 kts 292°
2026-04-26 08:35 52.11473 105.03482 8574 ft 256 kts 292°
2026-04-26 08:35 52.12042 105.00759 8234 ft 253 kts 292°
2026-04-26 08:36 52.12605 104.98065 7898 ft 250 kts 291°
2026-04-26 08:36 52.13161 104.95395 7559 ft 248 kts 291°
2026-04-26 08:36 52.13712 104.92746 7217 ft 246 kts 291°
2026-04-26 08:36 52.14253 104.90148 6888 ft 245 kts 291°
2026-04-26 08:37 52.14799 104.87528 6549 ft 244 kts 291°
2026-04-26 08:37 52.15336 104.84933 6216 ft 240 kts 291°
2026-04-26 08:37 52.15867 104.82360 5883 ft 239 kts 291°
2026-04-26 08:37 52.16392 104.79815 5551 ft 236 kts 291°
2026-04-26 08:38 52.16925 104.77238 4985 ft 245 kts 291°
2026-04-26 08:38 52.17473 104.74589 4696 ft 250 kts 291°
2026-04-26 08:38 52.18028 104.71917 4613 ft 243 kts 292°
2026-04-26 08:38 52.18662 104.69488 4536 ft 230 kts 297°
2026-04-26 08:39 52.19300 104.67169 4489 ft 217 kts 297°
2026-04-26 08:39 52.19899 104.64999 4489 ft 202 kts 297°
2026-04-26 08:39 52.20441 104.62984 4495 ft 189 kts 297°
2026-04-26 08:39 52.20958 104.61048 4518 ft 177 kts 297°
2026-04-26 08:40 52.21416 104.59328 4345 ft 156 kts 297°
2026-04-26 08:40 52.21829 104.57783 4140 ft 142 kts 298°
2026-04-26 08:40 52.22223 104.56305 3957 ft 145 kts 297°
2026-04-26 08:40 52.22602 104.54885 3743 ft 132 kts 296°
2026-04-26 08:41 52.22968 104.53516 3554 ft 132 kts 297°
2026-04-26 08:41 52.23334 104.52141 3353 ft 134 kts 297°
2026-04-26 08:41 52.23705 104.50750 3162 ft 134 kts 298°
2026-04-26 08:41 52.24075 104.49362 2953 ft 131 kts 297°
2026-04-26 08:42 52.24427 104.48038 2767 ft 131 kts 298°
2026-04-26 08:42 52.24791 104.46670 2540 ft 128 kts 296°
2026-04-26 08:42 52.25156 104.45312 2344 ft 135 kts 298°
2026-04-26 08:42 52.25521 104.43906 2107 ft 135 kts 295°
2026-04-26 08:43 52.25899 104.42491 1871 ft 135 kts 296°
2026-04-26 08:43 52.26262 104.41142 1693 ft 126 kts 298°
2026-04-26 08:43 52.26588 104.39956 1653 ft 93 kts 294°
2026-04-26 08:43 52.26766 104.39287 1637 ft 36 kts 292°
2026-04-26 08:44 52.26836 104.39019 1632 ft 26 kts 293°
2026-04-26 08:44 52.26915 104.38727 1625 ft 30 kts 293°
2026-04-26 08:44 52.26964 104.38527 1620 ft 18 kts 292°
2026-04-26 08:44 52.27020 104.38319 1615 ft 22 kts 294°
2026-04-26 08:45 52.27044 104.38132 1615 ft 12 kts 235°
2026-04-26 08:45 52.26962 104.38057 1614 ft 15 kts 204°
2026-04-26 08:45 52.26924 104.38029 1617 ft 1 kts 205°
2026-04-26 08:45 52.26923 104.38028 1617 ft 0 kts 205°
2026-04-26 08:46 52.26900 104.38010 1617 ft 8 kts 205°
2026-04-26 08:46 52.26840 104.37936 1614 ft 13 kts 249°
2026-04-26 08:47 52.26869 104.37780 1617 ft 17 kts 294°
2026-04-26 08:47 52.26923 104.37579 1607 ft 22 kts 294°
2026-04-26 08:47 52.26974 104.37376 1605 ft 12 kts 291°
2026-04-26 08:47 52.26997 104.37252 1596 ft 11 kts 272°
2026-04-26 08:48 52.26987 104.37139 1594 ft 10 kts 276°
2026-04-26 08:48 52.27017 104.37004 1591 ft 12 kts 290°
2026-04-26 08:48 52.27037 104.36956 1590 ft 0 kts 333°
2026-04-26 08:48 52.27045 104.36958 1590 ft 3 kts
2026-04-26 08:49 52.27078 104.36972 1590 ft 2 kts 18°